Hourly Weather Roundup
Issued by NWS Central Illinois

Home | Current Version | Previous Version | Text Only | Print | Product List | Glossary On
Versions: 1 2 3 4 5 6 7 8 9 10 11 12 13 14 15 16 17 18 19 20 21 22 23 24 25 26 27 28 29 30 31 32 33 34 35 36 37 38 39 40 41 42 43 44 45 46 47 48 49 50
000
NZUS43 KILX 240310
HWRILX

AREA WEATHER ROUNDUP
NATIONAL WEATHER SERVICE, LINCOLN IL
900 PM CST TUE DEC 23 2014


CITY           SKY/WX    TMP DP  RH WIND       PRES   REMARKS
BLOOMINGTON    FAIR      42  40  93 CALM      29.74F
CHAMPAIGN      CLOUDY    44  40  85 NE3       29.73F
DECATUR        CLOUDY    42  41  96 CALM      29.74F
FLORA          RAIN      44  41  87 N6        29.73S
GALESBURG      CLOUDY    37  35  90 CALM      29.75F
JACKSONVILLE   FAIR      39  35  85 NW3       29.77R
LACON          FAIR      35  32  87 CALM      29.76F
LAWRENCEVILLE  CLOUDY    47  42  83 N8        29.70F
LITCHFIELD     CLOUDY    41  40  95 NW5       29.74S
$$


CITY           SKY/WX    TMP DP  RH WIND       PRES   REMARKS
LINCOLN        MOCLDY    40  39  95 CALM      29.74F
MACOMB         FAIR      34  32  95 NW8       29.78S WCI  27
MATTOON        LGT RAIN  43  41  93 NE3       29.72F
MT CARMEL AP   CLOUDY    48  41  76 N8        29.70F
OLNEY-NOBLE AP RAIN      45  41  87 N5        29.73S
PARIS          CLOUDY    45  41  86 NE3       29.73F
PEORIA         FAIR      39  33  79 CALM      29.75F
PONTIAC        CLOUDY    39  38  97 CALM      29.76F
RANTOUL        CLOUDY    44  42  94 N3        29.73F
ROBINSON       LGT RAIN  46  42  86 N7        29.72F
SPRINGFIELD    CLOUDY    42  39  89 CALM      29.76F
TAYLORVILLE    CLOUDY    39  39 100 CALM      29.75R
$$

...REGIONAL REPORTS...


CITY           SKY/WX    TMP DP  RH WIND       PRES   REMARKS
CHICAGO O`HARE MOCLDY    41  36  82 SW3       29.75S
KANKAKEE       CLOUDY    40  39  97 CALM      29.76F
MOLINE         CLOUDY    38  33  82 SW3       29.74F
MOUNT VERNON   CLOUDY    45  37  76 N3        29.73S
PITTSFIELD     FAIR      37  33  86 NW3       29.78R
QUINCY         CLOUDY    36  32  85 NW5       29.77R WCI  32
ROCKFORD       CLOUDY    39  32  76 CALM      29.77S
$$


CITY           SKY/WX    TMP DP  RH WIND       PRES   REMARKS
BURLINGTON     CLOUDY    39  34  82 W3        29.76R
CEDAR RAPIDS   CLOUDY    35  34  96 NW8       29.74S WCI  29
DES MOINES     LGT SNOW  34  32  92 NW8       29.81R VSB 3/4 WCI  27
KIRKSVILLE     CLOUDY    36  36 100 SW3       29.79R FOG
OTTUMWA        CLOUDY    36  35  96 NW10      29.76S WCI  28
ST LOUIS       CLOUDY    43  38  82 CALM      29.75S
$$


CITY           SKY/WX    TMP DP  RH WIND       PRES   REMARKS
TERRE HAUTE    LGT RAIN  46  40  79 N8        29.71F
EVANSVILLE     LGT RAIN  48  45  89 N7        29.68F FOG
INDIANAPOLIS   LGT RAIN  47  45  93 N10       29.69F FOG
LAFAYETTE      CLOUDY    42  41  96 W5        29.74F
MADISON        CLOUDY    38  36  92 VRB3      29.72R
MILWAUKEE      MOCLDY    42  33  70 W3        29.75R
$$





USA.gov is the U.S. government's official web portal to all federal, state and local government web resources and services.